Tracking 19145 objects as of 25-Apr-2018
HD Live streaming from Space Station
objects crossing your sky now

COSMOS 2221

Track COSMOS 2221 now!
10-day predictions
COSMOS 2221 is classified as:


NORAD ID: 22236
Int'l Code: 1992-080A
Perigee: 599.7 km
Apogee: 624.7 km
Inclination: 82.5 °
Period: 96.8 minutes
Semi major axis: 6983 km
RCS: 7.493 m2 (large)
Launch date: November 24, 1992
Source: Commonwealth of Independent States (former USSR) (CIS)
Launch site: PLESETSK MISSILE AND SPACE COMPLEX (PKMTR)
aabbcc
Your satellite tracking list
Your tracking list is empty




NASA's NSSDC Master Catalog

Two Line Element Set (TLE):
1 22236U 92080A   18115.10953149  .00000205  00000-0  19714-4 0  9995
2 22236  82.5053 124.6523 0017960  48.7538 311.5223 14.87717705373693
Source of the keplerian elements: AFSPC